TimeCST,TemperatureF,Dew PointF,Humidity,Sea Level PressureIn,VisibilityMPH,Wind Direction,Wind SpeedMPH,Gust SpeedMPH,PrecipitationIn,Events,Conditions,WindDirDegrees,DateUTC
12:15 AM,41.5,35.6,79,29.91,10.0,North,6.9,-,N/A,,Overcast,350,2013-02-13 06:15:00
12:35 AM,41.9,34.5,75,29.90,10.0,North,8.1,-,N/A,,Overcast,360,2013-02-13 06:35:00
12:55 AM,41.2,35.2,79,29.90,10.0,North,8.1,-,N/A,,Overcast,360,2013-02-13 06:55:00
1:15 AM,41.0,34.5,78,29.88,10.0,North,12.7,-,N/A,,Overcast,10,2013-02-13 07:15:00
1:35 AM,40.5,34.2,78,29.88,10.0,North,10.4,-,N/A,,Overcast,360,2013-02-13 07:35:00
1:55 AM,40.3,34.3,79,29.87,10.0,North,9.2,-,N/A,,Overcast,350,2013-02-13 07:55:00
2:15 AM,40.3,34.3,79,29.87,10.0,North,9.2,-,N/A,,Overcast,350,2013-02-13 08:15:00
2:35 AM,40.3,34.0,78,29.87,10.0,North,4.6,-,N/A,,Overcast,360,2013-02-13 08:35:00
2:55 AM,40.1,34.0,79,29.86,10.0,North,9.2,-,N/A,,Overcast,350,2013-02-13 08:55:00
3:15 AM,40.1,33.4,77,29.85,10.0,NNW,12.7,-,N/A,,Overcast,340,2013-02-13 09:15:00
3:35 AM,40.1,32.9,75,29.85,10.0,North,10.4,-,N/A,,Overcast,350,2013-02-13 09:35:00
3:55 AM,40.1,32.7,75,29.86,10.0,NNW,11.5,-,N/A,,Overcast,340,2013-02-13 09:55:00
4:15 AM,39.4,33.3,79,29.85,10.0,NNW,11.5,-,N/A,,Overcast,340,2013-02-13 10:15:00
4:35 AM,39.2,33.1,79,29.86,10.0,North,8.1,-,N/A,,Overcast,350,2013-02-13 10:35:00
4:55 AM,39.2,33.8,81,29.86,10.0,NW,6.9,-,N/A,,Light Drizzle,320,2013-02-13 10:55:00
5:15 AM,38.7,33.8,83,29.86,7.0,NW,3.5,-,N/A,Rain,Rain,320,2013-02-13 11:15:00
5:35 AM,38.3,34.0,84,29.86,7.0,North,5.8,-,0.01,Rain,Light Rain,360,2013-02-13 11:35:00
6:15 AM,37.4,33.6,86,29.87,7.0,North,8.1,-,N/A,Rain,Rain,350,2013-02-13 12:15:00
6:35 AM,36.5,33.8,90,29.88,7.0,North,8.1,-,N/A,Rain,Rain,350,2013-02-13 12:35:00
6:55 AM,35.1,33.3,93,29.88,4.0,NNE,6.9,-,N/A,Rain,Light Rain,20,2013-02-13 12:55:00
7:15 AM,34.3,33.4,97,29.89,1.8,North,6.9,-,0.01,Snow,Light Snow,10,2013-02-13 13:15:00
7:35 AM,34.0,33.4,98,29.89,1.0,NNE,4.6,-,0.02,Snow,Light Snow,30,2013-02-13 13:35:00
7:55 AM,34.0,33.6,99,29.89,0.8,North,4.6,-,0.03,,Unknown,10,2013-02-13 13:55:00
8:15 AM,34.0,33.8,99,29.90,0.8,North,3.5,-,N/A,,Unknown,360,2013-02-13 14:15:00
8:35 AM,34.2,33.8,99,29.90,1.0,North,3.5,-,N/A,Rain,Light Rain,360,2013-02-13 14:35:00
8:55 AM,34.2,33.8,99,29.90,0.8,Calm,Calm,-,N/A,Rain,Light Rain,0,2013-02-13 14:55:00
9:15 AM,34.7,34.2,98,29.90,1.8,Calm,Calm,-,N/A,Rain,Light Rain,0,2013-02-13 15:15:00
9:35 AM,34.9,34.7,99,29.91,2.0,Calm,Calm,-,N/A,,Overcast,0,2013-02-13 15:35:00
9:55 AM,35.4,34.9,98,29.91,1.5,Calm,Calm,-,N/A,,Overcast,0,2013-02-13 15:55:00
10:15 AM,36.0,35.6,99,29.92,2.0,Calm,Calm,-,N/A,,Overcast,0,2013-02-13 16:15:00
10:35 AM,37.6,36.7,97,29.92,2.5,WNW,4.6,-,N/A,,Overcast,290,2013-02-13 16:35:00
10:55 AM,38.7,36.9,93,29.91,3.0,WSW,3.5,-,N/A,Rain,Light Rain,240,2013-02-13 16:55:00
11:15 AM,40.5,35.8,83,29.90,7.0,SW,5.8,-,N/A,,Mostly Cloudy,220,2013-02-13 17:15:00
11:35 AM,41.9,35.8,79,29.90,10.0,WSW,6.9,-,N/A,,Scattered Clouds,250,2013-02-13 17:35:00
11:55 AM,42.6,36.0,77,29.89,7.0,SSW,5.8,-,N/A,,Scattered Clouds,200,2013-02-13 17:55:00
12:15 PM,43.5,35.8,74,29.88,7.0,SW,4.6,-,N/A,,Mostly Cloudy,230,2013-02-13 18:15:00
12:35 PM,44.6,34.9,69,29.87,10.0,WSW,3.5,-,N/A,,Scattered Clouds,240,2013-02-13 18:35:00
12:55 PM,45.5,35.6,68,29.87,10.0,SW,6.9,-,N/A,,Scattered Clouds,220,2013-02-13 18:55:00
1:15 PM,46.9,35.4,64,29.87,10.0,West,5.8,-,N/A,,Scattered Clouds,260,2013-02-13 19:15:00
1:35 PM,47.5,34.5,61,29.86,10.0,West,8.1,-,N/A,,Scattered Clouds,260,2013-02-13 19:35:00
1:55 PM,48.0,34.7,60,29.86,10.0,SW,9.2,-,N/A,,Scattered Clouds,230,2013-02-13 19:55:00
2:15 PM,47.1,35.4,64,29.86,10.0,SW,10.4,-,N/A,,Scattered Clouds,220,2013-02-13 20:15:00
2:35 PM,48.2,35.4,61,29.85,10.0,SW,10.4,-,N/A,,Scattered Clouds,230,2013-02-13 20:35:00
2:55 PM,49.1,36.0,61,29.86,10.0,SW,11.5,-,N/A,,Scattered Clouds,220,2013-02-13 20:55:00
3:15 PM,48.9,35.4,60,29.86,10.0,SW,11.5,-,N/A,,Scattered Clouds,220,2013-02-13 21:15:00
3:35 PM,49.1,34.2,56,29.86,10.0,SW,10.4,-,N/A,,Clear,220,2013-02-13 21:35:00
3:55 PM,49.1,33.6,55,29.86,10.0,SW,11.5,-,N/A,,Clear,230,2013-02-13 21:55:00
4:15 PM,49.1,33.6,55,29.85,10.0,SW,11.5,-,N/A,,Clear,220,2013-02-13 22:15:00
4:35 PM,48.4,34.5,59,29.86,10.0,SW,8.1,-,N/A,,Clear,230,2013-02-13 22:35:00
4:55 PM,47.8,34.7,60,29.86,10.0,SW,8.1,-,N/A,,Clear,220,2013-02-13 22:55:00
5:15 PM,47.3,32.7,57,29.86,10.0,SW,8.1,-,N/A,,Clear,230,2013-02-13 23:15:00
5:35 PM,44.8,32.7,63,29.86,10.0,South,4.6,-,N/A,,Clear,190,2013-02-13 23:35:00
5:55 PM,43.5,34.0,69,29.87,10.0,South,4.6,-,N/A,,Clear,190,2013-02-13 23:55:00
6:15 PM,40.8,34.7,79,29.87,10.0,South,6.9,-,N/A,,Clear,190,2013-02-14 00:15:00
6:35 PM,40.5,34.2,78,29.88,10.0,South,6.9,-,N/A,,Clear,190,2013-02-14 00:35:00
6:55 PM,40.3,34.7,80,29.88,10.0,South,9.2,-,N/A,,Clear,190,2013-02-14 00:55:00
7:15 PM,42.8,35.8,76,29.89,10.0,SSW,12.7,-,N/A,,Clear,200,2013-02-14 01:15:00
7:35 PM,43.0,36.1,77,29.89,10.0,SSW,12.7,-,N/A,,Clear,200,2013-02-14 01:35:00
7:55 PM,42.1,36.1,79,29.89,10.0,SSW,11.5,-,N/A,,Clear,200,2013-02-14 01:55:00
8:15 PM,41.5,36.1,81,29.89,10.0,SSW,10.4,-,N/A,,Clear,200,2013-02-14 02:15:00
8:35 PM,41.2,36.1,82,29.89,10.0,SSW,11.5,-,N/A,,Clear,200,2013-02-14 02:35:00
8:55 PM,40.6,36.1,84,29.90,10.0,SSW,10.4,-,N/A,,Clear,200,2013-02-14 02:55:00
9:15 PM,39.6,36.1,88,29.90,10.0,South,9.2,-,N/A,,Clear,190,2013-02-14 03:15:00
9:35 PM,40.1,36.5,87,29.90,10.0,SSW,11.5,-,N/A,,Clear,200,2013-02-14 03:35:00
9:55 PM,40.1,36.5,87,29.90,10.0,South,10.4,-,N/A,,Clear,190,2013-02-14 03:55:00
10:15 PM,39.6,36.5,89,29.90,10.0,SSW,9.2,-,N/A,,Clear,200,2013-02-14 04:15:00
10:35 PM,39.9,36.7,88,29.91,10.0,SSW,10.4,-,N/A,,Clear,200,2013-02-14 04:35:00
10:55 PM,40.1,36.9,88,29.91,10.0,SSW,10.4,-,N/A,,Clear,200,2013-02-14 04:55:00
11:15 PM,40.1,37.2,89,29.91,10.0,SSW,10.4,-,N/A,,Clear,210,2013-02-14 05:15:00
11:35 PM,40.1,37.4,90,29.91,10.0,SSW,12.7,-,N/A,,Clear,210,2013-02-14 05:35:00
11:55 PM,40.3,37.8,91,29.91,10.0,SSW,11.5,-,N/A,,Clear,210,2013-02-14 05:55:00